Frenchville, ME

6:46 PM EDT on March 28, 2017 (GMT -0400)
Northern Aroostook Regional

Weather History for KFVE - January, 2012

Change the Weather History Date:

Wednesday, January 11, 2012

  Actual Average Record
Temperature  
Mean Temperature -1 °F 9 °F  
Max Temperature 4 °F 17 °F 42 °F (2016)
Min Temperature -6 °F 1 °F -16 °F (2004)
Degree Days  
Heating Degree Days 66    
Month to date heating degree days 599  
Since 1 July heating degree days 3889  
Cooling Degree Days 0    
Month to date cooling degree days 0  
Year to date cooling degree days 0  
Moisture  
Dew Point -8 °F    
Average Humidity 69    
Maximum Humidity 80    
Minimum Humidity 55    
Precipitation  
Precipitation 0.00 in 0.06 in 0.57 in (2014)
Month to date precipitation 0.33 1.14  
Year to date precipitation 0.33 1.14  
Sea Level Pressure  
Sea Level Pressure 30.11 in    
Wind  
Wind Speed 8 mph (NNW)    
Max Wind Speed 21 mph    
Max Gust Speed 28 mph    
Visibility 10 miles    
Events      
T = Trace of Precipitation, MM = Missing Value Source: NWS Daily Summary

Daily Weather History Graph

Daily Weather History Graph

Search for Another Location

Airport or City:

Trip Planner

Search our weather history database for the weather conditions in past years. The results will help you decide how hot, cold, wet, or windy it might be!

Date:

Astronomy

Jan. 11, 2012 Rise Set
Actual Time 7:18 AM EST 4:04 PM EST
Civil Twilight 6:43 AM EST 4:39 PM EST
Nautical Twilight 6:04 AM EST 5:17 PM EST
Astronomical Twilight 5:28 AM EST 5:54 PM EST
Moon 7:13 PM EST (1/11) 8:15 AM EST (1/11)
Length of Visible Light 9h 55m
Length of Day
8h 46m
Waning Gibbous, 93% of the Moon is Illuminated
Jan 11
Waning Gibbous
Jan 16
Last Quarter
Jan 23
New
Jan 30
First Quarter
Feb 7
Full

Hourly Weather History & Observations

Time (EST) Temp. Windchill Dew Point Humidity Pressure Visibility Wind Dir Wind Speed Gust Speed Precip Events Conditions
12:53 AM 1.9 °F -14.7 °F -6.0 °F 69% 29.92 in 10.0 mi NW 11.5 mph - N/A   Overcast
1:53 AM 1.0 °F -16.6 °F -7.1 °F 69% 29.96 in 10.0 mi NNW 12.7 mph - N/A   Overcast
2:14 AM -0.4 °F -19.9 °F -7.6 °F 72% 29.92 in 10.0 mi NNW 15.0 mph - N/A   Scattered Clouds
2:53 AM -0.9 °F -19.1 °F -8.0 °F 72% 29.99 in 10.0 mi NNW 12.7 mph 20.7 mph N/A   Partly Cloudy
3:08 AM -2.2 °F -21.5 °F -9.4 °F 71% 29.94 in 10.0 mi NNW 13.8 mph 24.2 mph N/A   Mostly Cloudy
3:53 AM -2.9 °F -19.8 °F -9.0 °F 75% 30.00 in 10.0 mi NW 10.4 mph - N/A   Overcast
4:53 AM -4.0 °F -21.2 °F -9.9 °F 76% 30.02 in 10.0 mi NW 10.4 mph - N/A   Mostly Cloudy
5:53 AM -4.0 °F -23.0 °F -9.4 °F 78% 29.99 in 10.0 mi NW 12.7 mph - N/A   Partly Cloudy
6:53 AM -5.1 °F -23.5 °F -9.9 °F 80% 30.07 in 10.0 mi NW 11.5 mph - N/A   Clear
7:53 AM -6.0 °F -22.6 °F -11.0 °F 79% 30.12 in 10.0 mi NW 9.2 mph - N/A   Clear
8:33 AM -4.0 °F -20.2 °F -9.4 °F 78% 30.07 in 10.0 mi NW 9.2 mph - N/A   Mostly Cloudy
8:53 AM -4.0 °F -23.7 °F -9.9 °F 76% 30.16 in 10.0 mi NW 13.8 mph 19.6 mph N/A   Mostly Cloudy
9:09 AM -4.0 °F -22.1 °F -9.4 °F 78% 30.08 in 10.0 mi NNW 11.5 mph - N/A   Scattered Clouds
9:53 AM -2.9 °F -21.6 °F -9.9 °F 72% 30.16 in 10.0 mi NNW 12.7 mph - N/A   Partly Cloudy
10:53 AM -0.9 °F -18.3 °F -9.9 °F 66% 30.14 in 10.0 mi NNW 11.5 mph - N/A   Clear
11:53 AM 1.0 °F -14.9 °F -9.0 °F 63% 30.14 in 10.0 mi NW 10.4 mph - N/A   Clear
12:53 PM 1.9 °F -11.8 °F -9.9 °F 58% 30.16 in 10.0 mi NW 8.1 mph - N/A   Clear
1:53 PM 3.9 °F -6.9 °F -9.0 °F 55% 30.18 in 10.0 mi West 5.8 mph - N/A   Clear
2:53 PM 3.9 °F -5.3 °F -9.0 °F 55% 30.20 in 10.0 mi NW 4.6 mph - N/A   Clear
3:53 PM 1.9 °F -5.6 °F -8.0 °F 63% 30.21 in 10.0 mi North 3.5 mph - N/A   Clear
4:53 PM 1.0 °F -8.7 °F -9.0 °F 63% 30.22 in 10.0 mi NW 4.6 mph - N/A   Clear
5:53 PM 1.0 °F -10.3 °F -9.0 °F 63% 30.21 in 10.0 mi North 5.8 mph - N/A   Overcast
6:53 PM 1.9 °F -7.6 °F -7.1 °F 66% 30.22 in 10.0 mi NNW 4.6 mph - N/A   Overcast
7:53 PM 1.9 °F -5.6 °F -7.1 °F 66% 30.22 in 10.0 mi North 3.5 mph - N/A   Overcast
8:53 PM 1.9 °F - -7.1 °F 66% 30.22 in 10.0 mi Calm Calm - N/A   Overcast
9:53 PM 1.9 °F - -6.0 °F 69% 30.22 in 10.0 mi Calm Calm - N/A   Overcast
10:53 PM 1.9 °F -5.6 °F -5.1 °F 72% 30.21 in 10.0 mi North 3.5 mph - N/A   Overcast
11:53 PM 1.9 °F - -4.0 °F 76% 30.21 in 10.0 mi Calm Calm - N/A   Overcast